[[{"header":{"parameterUnit":"m.s-1","parameterCategory":1,"la1":30.2992,"la2":30.254,"lo1":-89.0895,"lo2":-89.0443,"dy":0.0025,"dx":0.0025,"nx":19,"ny":19,"refTime":"2026-04-24T09:00:00:Z","depth":0,"parameterNumber":2,"parameterNumberName":"U-component_of_WINDS"},"data":[0,0,0,-2.5222,-2.5224,-2.5335,-2.5335,-2.5474,-2.5475,0,0,0,0,0,0,0,0,0,0,0,-2.5187,-2.5188,-2.5222,-2.5225,-2.5335,-2.5335,-2.5474,-2.5475,0,0,0,0,0,0,0,0,0,0,0,-2.5187,-2.5188,-2.5189,-2.5225,-2.5335,-2.5335,-2.5474,-2.5391,0,0,0,0,0,0,0,0,0,0,-2.5285,-2.525,-2.5187,-2.5189,-2.5226,-2.5335,-2.5336,-2.5387,-2.5396,-2.5423,0,-2.5445,0,-2.5462,-2.5484,-2.5485,0,0,0,-2.5226,-2.5242,-2.5274,-2.5189,-2.5227,-2.5335,-2.5286,-2.5392,-2.5403,-2.5435,-2.5447,-2.5452,-2.5464,-2.5485,-2.5486,-2.5629,-2.5629,0,0,-2.522,-2.5206,-2.5267,-2.5281,-2.5263,-2.5282,-2.5289,-2.5399,-2.5411,-2.5447,-2.5455,-2.5467,-2.5486,-2.5487,-2.5628,-2.5629,0,0,0,-2.5202,-2.5202,-2.5231,-2.5275,-2.5295,-2.5285,-2.5293,-2.5406,-2.5417,-2.5457,-2.5468,-2.5487,-2.5489,-2.5628,-2.5629,-2.5642,0,0,0,-2.5198,-2.5191,-2.5228,-2.522,-2.5293,-2.5352,-2.5298,-2.5409,-2.5422,-2.5468,-2.5487,-2.549,-2.5627,-2.5628,-2.564,-2.565,0,0,0,-2.5181,-2.5189,-2.5204,-2.5219,-2.5266,-2.535,-2.5368,-2.5413,-2.5429,-2.5485,-2.549,-2.5627,-2.5628,-2.5639,-2.5648,-2.5683,0,0,0,-2.5158,-2.5215,-2.5204,-2.5272,-2.5265,-2.5358,-2.5367,-2.5437,-2.5487,-2.5488,-2.5627,-2.5629,-2.5638,-2.5646,-2.5681,-2.5708,-2.5718,0,0,-2.5222,-2.5222,-2.5263,-2.5257,-2.5347,-2.5342,-2.5436,-2.5495,-2.5515,-2.559,-2.5594,-2.5641,-2.5648,-2.5682,-2.5784,-2.5792,0,0,0,-2.5279,-2.5308,-2.5335,-2.5381,-2.5427,-2.5468,-2.5514,-2.5536,-2.5601,-2.555,-2.5664,-2.5669,-2.5689,-2.5703,-2.571,-2.5728,-2.5635,-2.5634,-2.5634,-2.5347,-2.5368,-2.5437,-2.5471,-2.5516,-2.5563,-2.5601,-2.5639,-2.5648,-2.5674,-2.5696,-2.5755,-2.5771,-2.5776,-2.5795,-2.5714,-2.5714,-2.5714,-2.5714,-2.5441,-2.5485,-2.5495,-2.5565,-2.5587,-2.5647,-2.5695,-2.5699,-2.5758,-2.5741,-2.576,-2.5737,-2.5784,-2.5802,-2.5715,-2.5715,-2.5715,-2.5715,-2.5715,-2.5487,-2.5511,-2.5537,-2.5605,-2.5655,-2.5689,-2.5744,-2.5763,-2.5781,-2.5801,-2.5825,-2.5825,-2.5826,-2.5811,-2.5811,-2.5812,-2.5812,-2.5812,-2.5812,-2.5523,-2.5552,-2.5596,-2.565,-2.5681,-2.5725,-2.5774,-2.5806,-2.5846,-2.5855,-2.5856,-2.5861,-2.5785,-2.5765,-2.5815,-2.5815,-2.5814,-2.5814,-2.5814,-2.5608,-2.5592,-2.566,-2.5691,-2.5756,-2.5804,-2.5828,-2.5891,-2.592,-2.5947,-2.5949,-2.5891,-2.5892,-2.5887,-2.587,-2.5945,-2.5945,-2.5945,-2.5945,-2.5645,-2.5648,-2.5722,-2.5771,-2.5821,-2.5849,-2.5926,-2.5964,-2.6002,-2.6021,-2.6014,-2.5994,-2.5987,-2.5993,-2.5985,-2.597,-2.6068,-2.6068,-2.6068,-2.5698,-2.5707,-2.5767,-2.5803,-2.5855,-2.5899,-2.5971,-2.6028,-2.6067,-2.6074,-2.6037,-2.6031,-2.5999,-2.5988,-2.5991,-2.5979,-2.5951,0,0]},{"header":{"parameterUnit":"m.s-1","parameterCategory":1,"la1":30.2992,"la2":30.254,"lo1":-89.0895,"lo2":-89.0443,"dy":0.0025,"dx":0.0025,"nx":19,"ny":19,"refTime":"2026-04-24T09:00:00:Z","depth":0,"parameterNumber":3,"parameterNumberName":"V-component_of_WINDS"},"data":[0,0,0,5.0557,5.0557,5.0517,5.0516,5.0492,5.0492,0,0,0,0,0,0,0,0,0,0,0,5.0585,5.0586,5.0557,5.0556,5.0517,5.0516,5.0492,5.0492,0,0,0,0,0,0,0,0,0,0,0,5.0585,5.0586,5.0586,5.0556,5.0517,5.0516,5.0492,5.0512,0,0,0,0,0,0,0,0,0,0,5.0546,5.0589,5.0585,5.0586,5.0556,5.0517,5.0516,5.0513,5.0511,5.0521,0,5.0535,0,5.0513,5.0492,5.0492,0,0,0,5.0544,5.0591,5.0565,5.0586,5.0556,5.0517,5.0531,5.0511,5.0509,5.0519,5.0535,5.0533,5.0513,5.0492,5.0492,5.0594,5.0595,0,0,5.0546,5.0587,5.0566,5.0564,5.0573,5.0533,5.053,5.051,5.0529,5.0534,5.0532,5.0513,5.0492,5.0492,5.0593,5.0594,0,0,0,5.0561,5.0589,5.0563,5.0566,5.0557,5.0532,5.0529,5.053,5.0518,5.0531,5.0512,5.0492,5.0492,5.0592,5.0593,5.0686,0,0,0,5.0562,5.0598,5.0565,5.059,5.0558,5.0543,5.055,5.052,5.0516,5.0512,5.0492,5.0492,5.059,5.0593,5.0681,5.0723,0,0,0,5.0582,5.06,5.06,5.0592,5.0576,5.0543,5.0529,5.0518,5.0505,5.0492,5.0492,5.059,5.0592,5.0676,5.0715,5.0762,0,0,0,5.0616,5.0683,5.0602,5.0669,5.0577,5.0601,5.0529,5.0544,5.0544,5.0492,5.0591,5.0593,5.0675,5.0711,5.0757,5.0808,5.0834,0,0,5.0723,5.0697,5.0733,5.066,5.0709,5.0604,5.0665,5.0626,5.0587,5.0594,5.0595,5.0683,5.0715,5.0761,5.0961,5.0981,0,0,0,5.0781,5.0808,5.0811,5.0813,5.0785,5.0764,5.0711,5.0696,5.07,5.0599,5.0711,5.0729,5.0754,5.0776,5.0794,5.0812,5.0605,5.0605,5.0605,5.0991,5.0938,5.0994,5.0936,5.0939,5.0883,5.088,5.085,5.0796,5.0823,5.0825,5.0953,5.0981,5.0993,5.1014,5.0847,5.0848,5.0848,5.0848,5.1143,5.1172,5.1098,5.1126,5.1069,5.1091,5.104,5.1001,5.1012,5.0947,5.0966,5.09,5.1017,5.1032,5.0855,5.0854,5.0853,5.0852,5.0852,5.1275,5.1279,5.126,5.1257,5.1261,5.1199,5.1214,5.1162,5.1112,5.1131,5.1127,5.1125,5.1117,5.1133,5.1134,5.1134,5.1134,5.1135,5.1135,5.1419,5.1394,5.1414,5.139,5.1384,5.1369,5.1314,5.1306,5.1284,5.1244,5.1244,5.1186,5.1039,5.1003,5.1142,5.114,5.114,5.1139,5.1139,5.1592,5.1545,5.1575,5.157,5.1536,5.1543,5.1475,5.1464,5.145,5.1459,5.1397,5.1297,5.1266,5.1252,5.1222,5.1409,5.1409,5.1409,5.1409,5.1704,5.1683,5.1702,5.1696,5.1684,5.1626,5.1662,5.1619,5.1567,5.1555,5.152,5.1475,5.1463,5.144,5.1421,5.1392,5.1618,5.1619,5.1619,5.1807,5.1783,5.1824,5.1774,5.1743,5.1719,5.175,5.1745,5.1676,5.1626,5.1544,5.1535,5.1462,5.1441,5.1391,5.1363,5.1309,0,0]}]]